DECAYED

OBJECT B, 43663 (Decayed)

Orbit data source: Space-Track

You're viewing an Uncataloged Satellite

Recently launched and/or uncataloged satellites may have evolving metadata. Metadata may include but not limited to: Owner, Maufacturer, Bus, Motor, and Mission.

OBJECT B, 43663 was a satellite owned by Tsinghua (CN) in LEO that was launched on Mon, 29 Oct 2018 UTC via a CHANG ZHENG 2C launch vehicle from the Jiuquan Satellite Launch Center, China (JSC). Unknown objects in Earth's orbit typically refer to objects detected orbiting the Earth but have not yet been identified or cataloged. These objects could be anything from previously untracked satellites, spent rocket stages, debris from satellite collisions, or even natural meteoroids temporarily captured by Earth's gravity. This object's orbit decayed before it could be identified.

Not visible in the next 10 days
OBJECT B details
Identifier
43663, 2018-083B
Orbit
Decayed
Last TLE update2 months ago
Origin
Flag of CNTsinghua (CN / PRC)
ManufacturerChangsha Tianyi
MissionDecayed Commercial Astronomy
Bus & MotorCUBESAT 6U, Unknown motor
Mass8 kg wet, 8 kg dry
Launch date (UTC)
2018-10-29 (6 years ago)
Launch vehicle
CHANG ZHENG 2C
Launch site
Jiuquan Satellite Launch Center, China (JSC)
Object typeUnknown
Shape & HBRBox, 0.3 m
Radar Cross Section0.080 m², Medium (>0.1 m² and < 1m²)

Expand to show TLE details & history

TLE from 2 months ago
0 OBJECT B
1 43663U 18083B   24264.23015267  .08082201  24267-5  17430-2 0  9990
2 43663  97.2724 301.8490 0010388 253.7498 106.2654 16.30552179328149
Epoch: 2024-09-20T05:31Z
Definitive object data (Epoch: 2024-09-20T05:31:25.19Z)
Latitude-0.00006°
Longitude-140.61069°
Altitude196.217 km
Speed7.787 km/s
True Right ascension20h 07m 23s
True Declination0° 00' 00"
Sunlit
Object was in full shadow at TLE epoch
Visualization observer readout
Observer readout values are unavailable because the object's trajectory could not be propagated. This is usually caused when the trajectory data is faulty or the object's orbit has decayed.
Visualization observer readout
Observer readout values are unavailable because the object's trajectory could not be propagated. This is usually caused when the trajectory data is faulty or the object's orbit has decayed.
Orbital elements
Apogee altitude194.691 km
Perigee altitude181.05 km
Semi-major axis6,566.007 km
Eccentricity0.0010388
Inclination97.2724°
RAAN301.849°
Arg. of periapsis253.7498°
True anomaly106.37963°
Mean anomaly106.2654°
Eccentric anomaly106.32252°
Mean motion4.07935 °/min
BSTAR0.001743
Orbital period88.25 mins
Loading maneuver chart data...
Loading historical data...
Loading historical data...
Loading historical data...
Loading historical data...
Loading historical data...
Loading historical data...
Loading historical data...

OBJECT B Visibility forecast

Observer location: undefined°, undefined

This satellite is decayed
Span
Click to sort rows by Start time (UTC) header in descending order
Start Az.
Max El. time (UTC)
Max El. Az.
Max El.
End time (UTC)
End Az.
|